This is the latest recevied weather packets stored in our database for station/object AD8BW. If no packets are shown the sender has not sent any weather packets the latest 10 day(s).
| Time | Temp. | Humidity | Pressure | Rain* | Wind** | Luminosity | Snow |
|---|---|---|---|---|---|---|---|
| 1778091371 | 9.44° C | 52% | 1011.6 hPa | 0 mm | - | 141 W/m² | - |
| 1778090766 | 10° C | 54% | 1011.5 hPa | 0 mm | - | 202 W/m² | - |
| 1778090167 | 9.44° C | 55% | 1011.6 hPa | 0 mm | - | 216 W/m² | - |
| 1778089566 | 9.44° C | 55% | 1011.9 hPa | 0 mm | - | 153 W/m² | - |
| 1778088967 | 9.44° C | 57% | 1011.8 hPa | 0 mm | - | 287 W/m² | - |
| 1778088378 | 8.33° C | 59% | 1011.8 hPa | 0 mm | - | 232 W/m² | - |
| 1778087775 | 8.33° C | 59% | 1011.8 hPa | 0 mm | - | 91 W/m² | - |
| 1778087161 | 8.89° C | 57% | 1011.7 hPa | 0 mm | - | 70 W/m² | - |
| 1778086559 | 8.89° C | 55% | 1011.6 hPa | 0 mm | - | 192 W/m² | - |
| 1778085961 | 8.89° C | 57% | 1011.5 hPa | 0 mm | - | 206 W/m² | - |
| 1778085361 | 8.89° C | 54% | 1011.7 hPa | 0 mm | - | 181 W/m² | - |
| 1778084763 | 8.89° C | 57% | 1011.8 hPa | 0 mm | - | 213 W/m² | - |
| 1778084160 | 8.89° C | 57% | 1011.7 hPa | 0 mm | - | 213 W/m² | - |
| 1778083571 | 8.33° C | 57% | 1011.6 hPa | 0 mm | - | 158 W/m² | - |
| 1778082963 | 8.33° C | 58% | 1011.6 hPa | 0 mm | - | 176 W/m² | - |
| 1778082358 | 8.89° C | 58% | 1011.4 hPa | 0 mm | - | 283 W/m² | - |
| 1778081757 | 8.33° C | 61% | 1011.3 hPa | 0 mm | - | 262 W/m² | - |
| 1778081160 | 8.33° C | 60% | 1011.5 hPa | 0 mm | - | 220 W/m² | - |
| 1778080555 | 8.33° C | 60% | 1011.6 hPa | 0 mm | - | 255 W/m² | - |
| 1778079957 | 7.78° C | 61% | 1011.4 hPa | 0 mm | - | 107 W/m² | - |
| 1778079356 | 7.78° C | 61% | 1011.3 hPa | 0 mm | - | 137 W/m² | - |
| 1778078757 | 7.78° C | 61% | 1011.2 hPa | 0 mm | - | 251 W/m² | - |
| 1778078155 | 7.78° C | 61% | 1011.2 hPa | 0 mm | - | 418 W/m² | - |
| 1778077556 | 7.22° C | 63% | 1011.1 hPa | 0 mm | - | 287 W/m² | - |
| 1778076955 | 6.67° C | 65% | 1011.1 hPa | 0 mm | - | 155 W/m² | - |
* Rain latest hour (hover to see other rain measurements)
** Current wind speed in m/s (hover to see current wind gust speed)